Regional Weather Roundup
Issued by NWS Midland/Odessa, TX

Skip options and go directly to product.
Home | Oldest Version | Previous Version | Current Version | All | Text Only | Save Text | Print | Product List | Glossary On

Skip product version selection by date and time.   
536
ASUS44 KMAF 280401
RWRMAF
MIDLAND AREA WEATHER ROUNDUP
NATIONAL WEATHER SERVICE MIDLAND TX
1100 PM CDT FRI MAR 27 2015

...IN SOUTHWEST TEXAS AND SOUTHEAST NEW MEXICO...

CITY           SKY/WX    TMP DP  RH WIND       PRES   REMARKS
ALPINE         CLEAR     60  23  24 CALM      30.27S
ANDREWS        FAIR      63  31  30 S8        30.12R
ARTESIA        CLEAR     57  32  38 S10       30.10R
BIG SPRING     CLEAR     61  31  32 SE10      30.12S
CARLSBAD       CLEAR     56  34  43 SW13      30.08R
DRYDEN           N/A     62  40  44 SE5       30.13R
FORT STOCKTON  CLEAR     64  34  32 SW13      30.13R
GUAD PASS      CLEAR     62  18  18 W17       30.23R
HOBBS          CLEAR     55  25  30 S3        30.13R
MARFA          CLEAR     48  28  46 CALM      30.26S
MIDLAND AIRPK  CLEAR     65  32  28 S9        30.12S
MIDLAND INTL   CLEAR     63  35  35 S10       30.12R
ODESSA         CLEAR     65  32  29 S14       30.13R
PECOS          CLEAR     56  36  46 SW5       30.10R
PRESIDIO       FAIR      64  33  31 MISG      30.14R
SEMINOLE       CLEAR     58  28  31 SW8       30.12S
SNYDER         CLEAR     58  35  41 E10       30.13R
WINK           CLEAR     59  34  39 SE12      30.09R
$$
...OTHER STATIONS IN TEXAS...

CITY           SKY/WX    TMP DP  RH WIND       PRES   REMARKS
ABILENE        CLEAR     60  39  45 E9        30.14R
AMARILLO       CLEAR     52  32  46 SE13      30.13R
AUSTIN         CLEAR     55  44  66 CALM      30.15R
BROWNSVILLE    CLEAR     59  53  80 S3        30.22R
CORPUS CHRISTI CLEAR     60  56  86 S6        30.18R
DALLAS FTW     MOCLDY    52  39  61 E8        30.16S
DEL RIO        CLEAR     67  38  34 SE9       30.13R
EL PASO        CLEAR     68  17  14 S8        30.14R
HOUSTON INT    CLEAR     58  48  69 CALM      30.15R
LUBBOCK        CLEAR     55  33  43 SE15      30.11F
SAN ANGELO     CLEAR     60  37  42 S7        30.13R
SAN ANTONIO    CLEAR     66  38  35 SW8       30.15R
WACO           CLEAR     56  43  61 E5        30.16R
WICHITA FALLS  NOT AVBL
$$
...OTHER LOCATIONS IN NEW MEXICO...

CITY           SKY/WX    TMP DP  RH WIND       PRES   REMARKS
ALAMAGORDO     PTCLDY    57  21  24 SE10      30.15S
ALBUQUERQUE    CLEAR     64  15  15 N8        30.18R
CANNON AFB     NOT AVBL
CLOVIS         CLEAR     57  30  35 SE14      30.12R
HOLLOMAN AFB   PTCLDY    58  20  23 E7        30.13R
ROSWELL        CLEAR     54  31  41 S9        30.09R
RUIDOSO        CLEAR     50  16  25 SW10      30.28R
SANTA FE       CLEAR     56  13  18 CALM      30.21R
TRUTH OR CONSE CLEAR     62  20  19 NW6       30.15R
TUCUMCARI      CLEAR     54  27  35 S7        30.07R
$$

USA.gov is the U.S. government's official web portal to all federal, state and local government web resources and services.